Regional Weather Roundup
Issued by NWS

Home | Current Version | Previous Version | Graphics & Text | Print | Product List | Glossary On
Versions: 1 2 3 4 5 6 7 8 9 10 11 12 13 14 15 16 17 18 19 20 21 22 23 24 25 26 27 28 29 30 31 32 33 34 35 36 37 38 39 40 41 42 43 44 45 46 47 48 49 50
000
ASUS43 KDMX 200901
RWRIA

WEATHER ROUNDUP FOR IOWA
NATIONAL WEATHER SERVICE DES MOINES IA
300 AM CST TUE FEB 20 2018

NOTE: "FAIR" INDICATES FEW OR NO CLOUDS BELOW 12,000 FEET WITH NO
SIGNIFICANT WEATHER AND/OR OBSTRUCTIONS TO VISIBILITY.

* - THESE STATIONS ARE NOT NWS STATIONS...THUS NOT UNDER NWS
QUALITY CONTROL.  THEY ALSO DO NOT REPORT WEATHER SUCH
AS PRECIPITATION OR FOG.

IAZ001>003-012>014-020>022-031>034-043>046-201000-
   NORTHWEST IOWA

CITY           SKY/WX    TMP DP  RH WIND       PRES   REMARKS
CARROLL *      MIX PCPN  23  21  93 MISG      29.83R
CHEROKEE *     CLOUDY    19  18  95 NW7       29.88R FOG     WCI  10
DENISON *      RAIN      21  19  93 NW10      29.88R WCI  10
LE MARS *      FLURRIES  18  14  86 MISG      29.91R
ORANGE CITY *  LGT SNOW  18  16  93 N7        29.90R WCI   8
SHELDON *      FLURRIES  16  14  93 MISG      29.88R
SIOUX CITY     LGT SNOW  18  15  88 NW14      29.92R FOG     WCI   4
SPENCER        MIX PCPN  19  15  84 NW12      29.86R WCI   7
STORM LAKE *   LGT SNOW  19  18  93 MISG      29.84S
$$

IAZ055>058-069>071-079>083-090>094-201000-
   SOUTHWEST IOWA

CITY           SKY/WX    TMP DP  RH WIND       PRES   REMARKS
ATLANTIC *     CLOUDY    25  25 100 NW10      29.87R WCI  15
AUDUBON *      LGT SNOW  25  21  86 CALM      29.84S
CLARINDA *       N/A     28  28 100 NW6       29.87S WCI  22
COUNCIL BLFS * CLOUDY    21  21 100 NW12      29.88S FOG     WCI   9
CRESTON *      CLOUDY    28  27  93 W8        29.85R WCI  20
HARLAN  *      MIX PCPN  23  23 100 NW16      29.89S WCI  10
LAMONI         MIX PCPN  30  28  92 NW3       29.82F FOG
RED OAK *      CLOUDY    25  25 100 NW14G20   29.85F WCI  13
SHENANDOAH *   CLOUDY    25  23  93 NW8       29.88F FOG     WCI  16
$$

IAZ047>049-059>061-072>074-084-201000-
   CENTRAL IOWA

CITY           SKY/WX    TMP DP  RH WIND       PRES   REMARKS
AMES           FRZ RAIN  30  28  92 W8        29.81R FOG     WCI  22
ANKENY *       LGT RAIN  30  28  93 MISG      29.81S
BOONE *        RAIN      30  30 100 MISG      29.78F
CHARITON *     LGT RAIN  28  28 100 W5        29.81F WCI  23
DES MOINES     FRZ RAIN  29  27  92 S8        29.79F FOG     WCI  21
GRINNELL*      CLOUDY    31  31  99 W9        29.83R FOG     WCI  23
KNOXVILLE *    HVY RAIN  30  30 100 W6G17     29.80F WCI  24
MARSHALLTOWN   FRZ RAIN  31  31 100 SE8       29.75F FOG     WCI  23
NEWTON *       RAIN      30  30 100 CALM      29.81F
PELLA *        LGT SNOW  31  30  97 W20       29.91R WCI  19
$$

IAZ004>006-015-016-023>025-035-036-201000-
   NORTH CENTRAL IOWA

CITY           SKY/WX    TMP DP  RH WIND       PRES   REMARKS
CLARION *      CLOUDY    30  30 100 NW12      29.79S WCI  21
ESTHERVILLE    CLOUDY    17  16  95 N13       29.83F WCI   4
FORT DODGE *   CLOUDY    25  23  92 NW8       29.80F WCI  16
MASON CITY     FRZ RAIN  28  27  96 W3        29.80R
FOREST CITY *  CLOUDY    28  28 100 CALM      29.80R
WEBSTER CITY * CLOUDY    30  28  93 NW12      29.77R WCI  21
IOWA FALLS *   MIX PCPN  31  31  98 CALM      29.75F
$$

IAZ007>011-017>019-026>030-037>042-050>054-066-201000-
   NORTHEAST IOWA

CITY           SKY/WX    TMP DP  RH WIND       PRES   REMARKS
CEDAR RAPIDS   LGT RAIN  34  34 100 S5        29.76F FOG     WCI  30
CHARLES CITY * LGT RAIN  32  32 100 E7        29.74F WCI  26
CLINTON *      LGT RAIN  37  37 100 MISG        N/A  VSB 1/2
DECORAH *      LGT RAIN  32  32 100 VRB6G14   29.73F VSB 1/2 WCI  26
DUBUQUE        CLOUDY    34  33  96 SW3       29.75F FOG
MONTICELLO *   LGT RAIN  34  34 100 CALM      29.77S
OELWEIN *      FOG       32  32 100 W7        29.75F VSB 1/4 WCI  26
WATERLOO       FRZ RAIN  31  31 100 VRB3G33   29.78S FOG
$$

IAZ064-065-067-068-078-201000-
   EAST CENTRAL IOWA

CITY           SKY/WX    TMP DP  RH WIND       PRES   REMARKS
DAVENPORT      RAIN      38  36  92 S9        29.80F FOG     WCI  31
IOWA CITY      RAIN      35  34  96 S3        29.80S FOG
MT. PLEASANT * LGT SNOW  36  36 100 E5        29.78F WCI  32
MUSCATINE *    RAIN      36  36 100 SE7       29.80S WCI  30
QUAD CITIES    LGT RAIN  39  39 100 S3        29.80R FOG
$$

IAZ062-063-075>077-085>089-095>099-201000-
   SOUTHEAST IOWA

CITY           SKY/WX    TMP DP  RH WIND       PRES   REMARKS
BURLINGTON     RAIN      39  37  92 NE3       29.80F FOG
FAIRFIELD *    CLOUDY    34  34 100 CALM      29.77F FOG
FORT MADISON * HVY RAIN  39  39 100 E5        29.80F VSB 1
KEOKUK *       LGT RAIN  39  39 100 N6        29.79F WCI  35
OSKALOOSA *    LGT RAIN  31  31  99 W9        29.82R WCI  23
OTTUMWA        FRZ RAIN  32  31  96 W6        29.79S FOG     WCI  26
WASHINGTON *   MIX PCPN  34  34 100 S5        29.80F VSB 1   WCI  30
$$

ABBREVIATIONS USED IN REMARKS
   TC - TEMPERATURES IN CELSIUS
  WCI - WIND CHILL INDEX
   HX - HEAT INDEX
  VSB - VISIBILITY
$$




USA.gov is the U.S. government's official web portal to all federal, state and local government web resources and services.